[[{"header":{"parameterUnit":"m.s-1","parameterCategory":1,"la1":30.2991,"la2":30.254,"lo1":-89.0895,"lo2":-89.0444,"dy":0.0017,"dx":0.0017,"nx":28,"ny":28,"refTime":"2023-07-24T09:00:00:Z","depth":0,"parameterNumber":2,"parameterNumberName":"U-component_of_WINDS"},"data":[0,0,0,0,0,0,0,0,0,0,0,0,0,0,0,0,0,0,0,0,0,0,0,0,0,0,0,0,0,0,0,0,0,0,0,0,0,0,0,0,0,0,0,0,0,0,0,0,0,0,0,0,0,0,0,0,0,0,0.6728,0.673,0,0.6896,0.6898,0.69,0.6964,0.6964,0.6963,0.6963,0.7138,0.7143,0.7148,0,0,0,0,0,0,0,0,0,0,0,0,0,0.6462,0.6467,0.6728,0.673,0.6732,0.6896,0.6898,0.6901,0.6964,0.6964,0.6963,0.6963,0.7136,0.7142,0.7148,0,0,0,0,0,0,0,0,0,0,0,0,0,0.6599,0.6468,0.6728,0.6784,0.679,0.6896,0.6899,0.6901,0.6964,0.6964,0.6963,0.6962,0.7134,0.7142,0.7149,0.7212,0,0,0.7173,0.7176,0,0,0,0,0,0,0,0,0.6591,0.6609,0.6773,0.678,0.6788,0.6908,0.6869,0.7006,0.6965,0.6898,0.6963,0.6962,0.7062,0.7076,0.7109,0.722,0.7228,0.7173,0.7178,0.7181,0.7184,0,0,0,0,0,0,0,0.6582,0.6602,0.6795,0.6776,0.6784,0.6801,0.6819,0.6895,0.6983,0.6904,0.6909,0.6928,0.7066,0.7102,0.7114,0.723,0.7173,0.718,0.7185,0.7188,0.7399,0.74,0,0,0,0,0,0,0.6563,0.6593,0.6789,0.68,0.6685,0.6806,0.6827,0.6871,0.6982,0.6998,0.6929,0.693,0.7089,0.7105,0.712,0.72,0.7181,0.7189,0.7193,0.7399,0.74,0.7401,0,0,0,0,0,0,0.6557,0.6579,0.6783,0.6698,0.6725,0.6811,0.686,0.6874,0.691,0.7,0.7017,0.6949,0.7089,0.7109,0.7188,0.7207,0.7192,0.7199,0.7397,0.7399,0.74,0.736,0,0,0,0,0,0,0.6549,0.6577,0.6602,0.6698,0.6729,0.6847,0.6861,0.6878,0.6923,0.6927,0.7024,0.7039,0.709,0.7176,0.7196,0.7217,0.7205,0.7396,0.7398,0.74,0.7361,0.736,0.736,0,0,0,0,0,0.6539,0.6585,0.6602,0.6626,0.6762,0.6848,0.6866,0.6923,0.6924,0.6949,0.7007,0.7036,0.7201,0.7184,0.7206,0.723,0.7395,0.7397,0.74,0.7361,0.736,0.736,0,0,0,0,0,0,0.649,0.6598,0.6619,0.6698,0.6763,0.6859,0.6893,0.6921,0.6989,0.699,0.7058,0.708,0.7152,0.72,0.7178,0.7296,0.73,0.7307,0.7263,0.7264,0.7263,0.7251,0.7211,0,0,0,0,0,0.6487,0.6548,0.664,0.67,0.6732,0.6806,0.6846,0.6884,0.6955,0.6983,0.7047,0.7115,0.7183,0.7226,0.7293,0.7367,0.7389,0.7395,0.7395,0.7394,0.74,0.7441,0.7444,0.7408,0.7408,0.7408,0,0,0.6484,0.6551,0.6586,0.6692,0.6747,0.6808,0.6829,0.6894,0.694,0.6993,0.7071,0.712,0.7201,0.7277,0.7314,0.7318,0.7414,0.7397,0.7396,0.7402,0.7444,0.7447,0.745,0.741,0.7409,0.7409,0,0,0.651,0.6567,0.6622,0.6676,0.6759,0.6808,0.6821,0.6912,0.6947,0.7025,0.7066,0.7122,0.7237,0.7292,0.7335,0.7379,0.7408,0.7399,0.7399,0.7438,0.7441,0.7444,0.7459,0.7463,0.7404,0.7404,0.7404,0,0.6496,0.6589,0.6647,0.6709,0.6754,0.6804,0.686,0.691,0.7011,0.7041,0.7044,0.7188,0.7246,0.7335,0.7345,0.7379,0.7396,0.7389,0.7436,0.744,0.7443,0.7458,0.7463,0.7402,0.7402,0.7402,0.7403,0,0.6567,0.6631,0.6666,0.676,0.6809,0.6868,0.6935,0.6978,0.701,0.7059,0.7138,0.7209,0.729,0.7314,0.7348,0.7408,0.7408,0.7423,0.7428,0.7444,0.7459,0.7465,0.74,0.74,0.7401,0.7401,0,0,0.6567,0.6691,0.6703,0.6746,0.684,0.689,0.6951,0.7029,0.7064,0.7131,0.7183,0.7278,0.7292,0.7341,0.7381,0.7415,0.7444,0.7426,0.7429,0.7426,0.7513,0.7501,0.7507,0.7463,0.7464,0.7465,0.7506,0,0.6605,0.6714,0.6767,0.6854,0.6913,0.696,0.7013,0.7076,0.7122,0.7179,0.7231,0.7297,0.731,0.734,0.7376,0.7433,0.7462,0.743,0.7512,0.7515,0.749,0.7515,0.7503,0.7538,0.7513,0.7514,0.7514,0,0.6663,0.6728,0.682,0.6905,0.6932,0.6978,0.7054,0.7108,0.718,0.7211,0.7264,0.7303,0.7368,0.7368,0.7458,0.7435,0.7472,0.7504,0.7507,0.7517,0.7515,0.7525,0.7551,0.7556,0.7524,0.7524,0.7523,0,0.6653,0.6764,0.6833,0.6868,0.6969,0.7,0.7044,0.7116,0.7159,0.7225,0.7253,0.7326,0.7366,0.7421,0.7478,0.7473,0.7563,0.7568,0.759,0.7589,0.7608,0.7606,0.7639,0.7631,0.7631,0.7631,0.7631,0,0.6689,0.6743,0.6829,0.6872,0.6933,0.6994,0.7053,0.7101,0.7163,0.7216,0.7261,0.7309,0.7381,0.7439,0.7484,0.7551,0.7569,0.7596,0.7607,0.7592,0.7588,0.7617,0.7616,0.7632,0.7632,0.7632,0.7631,0,0.6688,0.6748,0.6826,0.6915,0.6939,0.698,0.7056,0.7099,0.7147,0.7212,0.7231,0.7307,0.7376,0.7438,0.753,0.756,0.7629,0.7643,0.7604,0.761,0.7629,0.7626,0.7682,0.7692,0.7677,0.7677,0.7677,0,0.6707,0.675,0.6843,0.688,0.6923,0.6983,0.7027,0.7088,0.7132,0.7216,0.7248,0.732,0.7381,0.749,0.7553,0.7624,0.764,0.7655,0.7651,0.7634,0.764,0.7636,0.7641,0.7654,0.7654,0.7654,0.7654,0,0.6734,0.6761,0.6822,0.6893,0.6944,0.7003,0.7063,0.7092,0.7164,0.721,0.7281,0.7328,0.7421,0.7493,0.757,0.7615,0.7646,0.7654,0.7663,0.7648,0.7623,0.7636,0.7603,0.7653,0.7653,0.7653,0.7653,0.7653,0.6744,0.6783,0.6854,0.692,0.6972,0.7027,0.7071,0.7123,0.7183,0.7263,0.7295,0.7367,0.7437,0.7543,0.7588,0.7645,0.7651,0.7664,0.7667,0.767,0.7666,0.7614,0.766,0.766,0.766,0.766,0.766,0,0.6773,0.682,0.688,0.6963,0.7014,0.7038,0.7105,0.7147,0.7209,0.7271,0.733,0.741,0.7479,0.7547,0.7619,0.7651,0.7668,0.7668,0.7667,0.7676,0.7657,0.7642,0.7654,0.7654,0.7654,0.7654,0.7654,0.7654,0.6794,0.6861,0.6896,0.6989,0.7037,0.7107,0.7143,0.7194,0.7243,0.7331,0.7388,0.7431,0.7495,0.7572,0.7636,0.7654,0.7678,0.7675,0.7697,0.7678,0.7678,0.7678,0.7664,0.768,0.768,0.7712,0.7712,0.7712]},{"header":{"parameterUnit":"m.s-1","parameterCategory":1,"la1":30.2991,"la2":30.254,"lo1":-89.0895,"lo2":-89.0444,"dy":0.0017,"dx":0.0017,"nx":28,"ny":28,"refTime":"2023-07-24T09:00:00:Z","depth":0,"parameterNumber":3,"parameterNumberName":"V-component_of_WINDS"},"data":[0,0,0,0,0,0,0,0,0,0,0,0,0,0,0,0,0,0,0,0,0,0,0,0,0,0,0,0,0,0,0,0,0,0,0,0,0,0,0,0,0,0,0,0,0,0,0,0,0,0,0,0,0,0,0,0,0,0,2.8445,2.8445,0,2.8452,2.8452,2.8452,2.8477,2.8477,2.8478,2.8479,2.8483,2.8482,2.8482,0,0,0,0,0,0,0,0,0,0,0,0,0,2.845,2.845,2.8445,2.8445,2.8446,2.8452,2.8452,2.8452,2.8477,2.8478,2.8478,2.8479,2.8483,2.8482,2.8482,0,0,0,0,0,0,0,0,0,0,0,0,0,2.8451,2.8449,2.8445,2.8459,2.846,2.8452,2.8452,2.8452,2.8477,2.8478,2.8478,2.8479,2.8483,2.8482,2.8482,2.846,0,0,2.848,2.8479,0,0,0,0,0,0,0,0,2.8451,2.8451,2.8457,2.8458,2.8459,2.8465,2.8455,2.8455,2.8476,2.847,2.8479,2.848,2.8476,2.8476,2.8475,2.8461,2.8461,2.848,2.8479,2.8479,2.8479,0,0,0,0,0,0,0,2.8451,2.8451,2.8448,2.8457,2.8458,2.8463,2.8464,2.8455,2.8468,2.8471,2.8473,2.8473,2.8476,2.8475,2.8475,2.8461,2.848,2.8479,2.8479,2.8478,2.8426,2.8425,0,0,0,0,0,0,2.8449,2.8451,2.8448,2.8448,2.8457,2.8462,2.8463,2.8462,2.8468,2.847,2.8473,2.8474,2.8476,2.8476,2.8475,2.8449,2.8479,2.8478,2.8478,2.8427,2.8426,2.8425,0,0,0,0,0,0,2.8449,2.8449,2.8447,2.845,2.845,2.8461,2.8459,2.8462,2.8461,2.8469,2.8471,2.8469,2.8477,2.8476,2.8463,2.8449,2.8478,2.8477,2.8428,2.8427,2.8425,2.8397,0,0,0,0,0,0,2.8449,2.8449,2.8442,2.845,2.845,2.8437,2.8458,2.8461,2.846,2.8462,2.8467,2.8469,2.8477,2.8464,2.8463,2.8449,2.8477,2.843,2.8428,2.8426,2.8399,2.8395,2.8391,0,0,0,0,0,2.845,2.8434,2.8442,2.8441,2.8442,2.8436,2.8436,2.8447,2.8459,2.8451,2.8456,2.8468,2.8452,2.8463,2.8461,2.8447,2.8431,2.8428,2.8426,2.8401,2.8395,2.8391,0,0,0,0,0,0,2.8424,2.8435,2.8444,2.843,2.8432,2.844,2.8431,2.8441,2.8439,2.8441,2.8455,2.8455,2.844,2.8443,2.8455,2.8425,2.8443,2.844,2.8424,2.8419,2.8415,2.8414,2.8476,0,0,0,0,0,2.8417,2.8412,2.8422,2.8409,2.8409,2.842,2.8418,2.8426,2.8428,2.8428,2.8433,2.8433,2.8428,2.8424,2.842,2.84,2.84,2.8389,2.8385,2.8382,2.8378,2.8365,2.836,2.8418,2.8418,2.8418,0,0,2.8401,2.8407,2.8403,2.8403,2.8406,2.8399,2.842,2.8413,2.8407,2.8427,2.8415,2.8418,2.8419,2.8402,2.8395,2.8403,2.8363,2.8379,2.8376,2.8375,2.8362,2.8357,2.8352,2.8416,2.8416,2.8417,0,0,2.837,2.8375,2.8363,2.8365,2.8368,2.8375,2.8372,2.8378,2.8381,2.837,2.8383,2.8377,2.8368,2.8367,2.8365,2.8332,2.8342,2.833,2.8307,2.8294,2.829,2.8286,2.8271,2.8266,2.8327,2.8327,2.8327,0,2.835,2.8342,2.8356,2.8347,2.8345,2.8364,2.8351,2.8351,2.8353,2.835,2.8361,2.8348,2.835,2.8332,2.8324,2.8323,2.8318,2.8329,2.829,2.8286,2.8282,2.8268,2.8263,2.8326,2.8326,2.8326,2.8326,0,2.8316,2.831,2.83,2.8301,2.8299,2.8288,2.8298,2.8294,2.8302,2.8307,2.8293,2.8297,2.8292,2.8289,2.8297,2.827,2.8275,2.8288,2.8305,2.8275,2.8262,2.8257,2.8323,2.8324,2.8324,2.8325,0,0,2.8269,2.8277,2.8272,2.8272,2.8276,2.8271,2.826,2.8256,2.8251,2.8251,2.824,2.8231,2.8242,2.824,2.8248,2.8237,2.8206,2.825,2.825,2.8239,2.8174,2.8163,2.8157,2.8214,2.8213,2.8212,2.8173,0,2.8237,2.8219,2.823,2.821,2.8203,2.822,2.821,2.821,2.8214,2.8208,2.8212,2.8204,2.822,2.8219,2.8209,2.8212,2.8193,2.8215,2.8201,2.8201,2.8199,2.8151,2.814,2.8103,2.8168,2.8168,2.8167,0,2.8197,2.8195,2.8175,2.8178,2.8176,2.8167,2.8162,2.8157,2.8157,2.816,2.8157,2.8167,2.8155,2.8173,2.8154,2.8169,2.8164,2.8164,2.8163,2.8161,2.8181,2.8145,2.8092,2.8086,2.816,2.816,2.8161,0,2.8161,2.8154,2.814,2.8139,2.8144,2.8136,2.8138,2.8139,2.8135,2.8131,2.8128,2.8123,2.8119,2.8113,2.8121,2.8134,2.8099,2.8119,2.81,2.8099,2.8091,2.8091,2.8034,2.8091,2.8091,2.8091,2.8091,0,2.8124,2.8109,2.8123,2.8114,2.8098,2.8111,2.8094,2.8097,2.8097,2.8087,2.8102,2.8092,2.8104,2.8094,2.81,2.8082,2.8081,2.8081,2.8083,2.8079,2.8078,2.8074,2.8076,2.809,2.809,2.809,2.8091,0,2.808,2.8089,2.8075,2.808,2.8081,2.8068,2.8072,2.8063,2.8068,2.8055,2.8053,2.806,2.805,2.8057,2.8047,2.8051,2.8025,2.8032,2.8026,2.8026,2.8005,2.8006,2.7942,2.7933,2.7998,2.7998,2.7997,0,2.8054,2.8044,2.8048,2.8043,2.8043,2.8035,2.8031,2.8042,2.8037,2.8035,2.8025,2.8016,2.801,2.7992,2.7995,2.7987,2.7991,2.7969,2.799,2.7985,2.7987,2.7987,2.7984,2.7964,2.7963,2.7963,2.7962,0,2.8006,2.8011,2.8005,2.8,2.7995,2.7992,2.7989,2.7984,2.7995,2.7988,2.7978,2.7973,2.7962,2.7952,2.7944,2.7944,2.7953,2.7956,2.7951,2.7945,2.7941,2.794,2.8012,2.7957,2.7958,2.7958,2.7958,2.7958,2.7969,2.796,2.796,2.7953,2.7952,2.7949,2.794,2.7943,2.7936,2.7928,2.7935,2.7922,2.792,2.7911,2.7909,2.7897,2.7906,2.7899,2.7896,2.7894,2.7889,2.7945,2.7896,2.7896,2.7896,2.7897,2.7897,0,2.792,2.7921,2.7914,2.791,2.7903,2.7915,2.7912,2.7905,2.7894,2.7891,2.7884,2.7871,2.7861,2.7863,2.7853,2.7843,2.7847,2.784,2.7839,2.7838,2.7884,2.7888,2.7837,2.7837,2.7837,2.7837,2.7837,2.7837,2.7893,2.7877,2.7881,2.7864,2.7865,2.7853,2.785,2.7846,2.7844,2.7829,2.782,2.7822,2.7821,2.781,2.7801,2.7801,2.7796,2.7786,2.7788,2.783,2.7836,2.7841,2.7845,2.7785,2.7785,2.7743,2.7743,2.7743]}]]